| time (UTC) | temp C | wind direction | speed KPH | gust KPH | rain 1hr cm | rain 24hr cm | rain mn cm | humidity % | barometer mb |
| 20260507203045 | 21 | 220 | 3.2 | 11.3 | 0.00 | 0.00 | 0.00 | 71 | 1014.4 |
| 20260507201544 | 22 | 257 | 3.2 | 9.7 | 0.00 | 0.00 | 0.00 | 69 | 1014.4 |
| 20260507200043 | 22 | 172 | 4.8 | 14.5 | 0.00 | 0.00 | 0.00 | 68 | 1014.5 |
| 20260507194542 | 22 | 210 | 1.6 | 17.7 | 0.00 | 0.00 | 0.00 | 69 | 1014.5 |
| 20260507193042 | 22 | 239 | 3.2 | 14.5 | 0.00 | 0.00 | 0.00 | 70 | 1014.6 |
| 20260507191537 | 21 | 188 | 3.2 | 11.3 | 0.00 | 0.00 | 0.00 | 71 | 1014.9 |
| 20260507190038 | 21 | 284 | 3.2 | 14.5 | 0.00 | 0.00 | 0.00 | 70 | 1015.0 |
| 20260507184535 | 22 | 273 | 1.6 | 9.7 | 0.00 | 0.00 | 0.00 | 69 | 1015.2 |
| 20260507183035 | 22 | 203 | 1.6 | 8.0 | 0.00 | 0.00 | 0.00 | 69 | 1015.2 |
| 20260507181533 | 22 | 176 | 1.6 | 8.0 | 0.00 | 0.00 | 0.00 | 69 | 1015.2 |
| 20260507180033 | 22 | 203 | 0.0 | 8.0 | 0.00 | 0.00 | 0.00 | 69 | 1015.3 |
| 20260507174544 | 21 | 232 | 1.6 | 9.7 | 0.00 | 0.00 | 0.00 | 71 | 1015.4 |
| 20260507173028 | 21 | 177 | 0.0 | 9.7 | 0.00 | 0.00 | 0.00 | 72 | 1015.5 |
| 20260507171530 | 21 | 274 | 0.0 | 9.7 | 0.00 | 0.00 | 0.00 | 72 | 1015.6 |
| 20260507170024 | 20 | 257 | 0.0 | 6.4 | 0.00 | 0.00 | 0.00 | 74 | 1015.6 |
| 20260507164519 | 20 | 273 | 0.0 | 6.4 | 0.00 | 0.00 | 0.00 | 76 | 1015.7 |
| 20260507163021 | 20 | 282 | 0.0 | 4.8 | 0.00 | 0.00 | 0.00 | 76 | 1015.8 |
| 20260507161519 | 19 | 274 | 0.0 | 6.4 | 0.00 | 0.00 | 0.00 | 77 | 1015.8 |
| 20260507160015 | 18 | 198 | 0.0 | 0.0 | 0.00 | 0.00 | 0.00 | 79 | 1016.0 |
| 20260507154517 | 18 | 176 | 0.0 | 6.4 | 0.00 | 0.00 | 0.00 | 80 | 1016.1 |
| 20260507153007 | 18 | 37 | 0.0 | 1.6 | 0.00 | 0.00 | 0.00 | 83 | 1016.1 |
| 20260507151508 | 17 | 338 | 0.0 | 0.0 | 0.00 | 0.00 | 0.00 | 82 | 1016.2 |
| 20260507150002 | 16 | 30 | 0.0 | 0.0 | 0.00 | 0.00 | 0.00 | 88 | 1016.1 |
| 20260507144558 | 15 | 25 | 0.0 | 0.0 | 0.00 | 0.00 | 0.00 | 90 | 1016.1 |
| 20260507143103 | 14 | 29 | 0.0 | 0.0 | 0.00 | 0.00 | 0.00 | 92 | 1016.0 |
| 20260507141557 | 13 | 32 | 0.0 | 0.0 | 0.00 | 0.00 | 0.00 | 94 | 1015.7 |
| 20260507140109 | 12 | 30 | 0.0 | 0.0 | 0.00 | 0.00 | 0.00 | 95 | 1015.8 |
| 20260507134550 | 11 | 342 | 0.0 | 0.0 | 0.00 | 0.00 | 0.00 | 95 | 1015.7 |
| 20260507133053 | 10 | 22 | 0.0 | 0.0 | 0.00 | 0.00 | 0.00 | 94 | 1015.5 |
| 20260507131613 | 10 | 32 | 0.0 | 0.0 | 0.00 | 0.00 | 0.00 | 95 | 1015.4 |
| 20260507130046 | 10 | 33 | 0.0 | 0.0 | 0.00 | 0.00 | 0.00 | 95 | 1015.5 |
| 20260507124552 | 10 | 33 | 0.0 | 0.0 | 0.00 | 0.00 | 0.00 | 94 | 1015.2 |
| 20260507123046 | 10 | 32 | 0.0 | 0.0 | 0.00 | 0.00 | 0.00 | 95 | 1015.2 |
| 20260507121545 | 10 | 33 | 0.0 | 0.0 | 0.00 | 0.00 | 0.00 | 94 | 1015.2 |
| 20260507120043 | 10 | 32 | 0.0 | 0.0 | 0.00 | 0.00 | 0.00 | 94 | 1015.1 |
| 20260507114540 | 11 | 33 | 0.0 | 0.0 | 0.00 | 0.00 | 0.00 | 94 | 1015.1 |
| 20260507113102 | 11 | 33 | 0.0 | 0.0 | 0.00 | 0.00 | 0.00 | 94 | 1015.1 |
| 20260507111537 | 11 | 34 | 0.0 | 0.0 | 0.00 | 0.00 | 0.00 | 94 | 1015.2 |
| 20260507110038 | 11 | 34 | 0.0 | 0.0 | 0.00 | 0.00 | 0.00 | 94 | 1015.3 |
| 20260507104533 | 11 | 34 | 0.0 | 0.0 | 0.00 | 0.00 | 0.00 | 94 | 1015.4 |
| 20260507103032 | 11 | 37 | 0.0 | 0.0 | 0.00 | 0.00 | 0.00 | 94 | 1015.4 |
| 20260507101530 | 11 | 34 | 0.0 | 0.0 | 0.00 | 0.00 | 0.00 | 93 | 1015.5 |
| 20260507100041 | 11 | 32 | 0.0 | 0.0 | 0.00 | 0.00 | 0.00 | 94 | 1015.5 |
| 20260507094524 | 12 | 33 | 0.0 | 0.0 | 0.00 | 0.00 | 0.00 | 93 | 1015.7 |
| 20260507093027 | 12 | 34 | 0.0 | 0.0 | 0.00 | 0.00 | 0.00 | 93 | 1015.8 |
| 20260507091522 | 12 | 30 | 0.0 | 4.8 | 0.00 | 0.00 | 0.00 | 93 | 1015.8 |
| 20260507090019 | 12 | 32 | 0.0 | 1.6 | 0.00 | 0.00 | 0.00 | 93 | 1015.9 |
| 20260507084538 | 12 | 34 | 0.0 | 1.6 | 0.00 | 0.00 | 0.00 | 93 | 1016.1 |
| 20260507083022 | 12 | 37 | 0.0 | 3.2 | 0.00 | 0.00 | 0.00 | 93 | 1016.2 |
| 20260507081514 | 12 | 340 | 0.0 | 4.8 | 0.00 | 0.00 | 0.00 | 93 | 1016.3 |
| 20260507080015 | 13 | 33 | 0.0 | 0.0 | 0.00 | 0.00 | 0.00 | 93 | 1016.4 |
| 20260507074513 | 12 | 20 | 0.0 | 1.6 | 0.00 | 0.00 | 0.00 | 93 | 1016.3 |
| 20260507073009 | 13 | 4 | 0.0 | 3.2 | 0.00 | 0.00 | 0.00 | 92 | 1016.5 |
| 20260507071515 | 13 | 30 | 0.0 | 3.2 | 0.00 | 0.00 | 0.00 | 92 | 1016.4 |
| 20260507070015 | 13 | 344 | 0.0 | 3.2 | 0.00 | 0.00 | 0.00 | 92 | 1016.6 |
| 20260507064507 | 13 | 29 | 0.0 | 0.0 | 0.00 | 0.00 | 0.00 | 92 | 1016.6 |
| 20260507063004 | 13 | 16 | 0.0 | 0.0 | 0.00 | 0.00 | 0.00 | 92 | 1016.3 |
| 20260507061504 | 13 | 337 | 0.0 | 1.6 | 0.00 | 0.00 | 0.00 | 91 | 1016.5 |
| 20260507060003 | 13 | 49 | 0.0 | 1.6 | 0.00 | 0.00 | 0.00 | 91 | 1016.6 |
| 20260507054503 | 13 | 323 | 0.0 | 1.6 | 0.00 | 0.00 | 0.00 | 90 | 1016.6 |
| 20260507053003 | 13 | 344 | 0.0 | 1.6 | 0.00 | 0.00 | 0.00 | 90 | 1016.6 |
| 20260507051502 | 14 | 44 | 0.0 | 1.6 | 0.00 | 0.00 | 0.00 | 89 | 1016.6 |
| 20260507050006 | 14 | 253 | 0.0 | 0.0 | 0.00 | 0.00 | 0.00 | 88 | 1016.4 |
| 20260507044501 | 15 | 253 | 0.0 | 0.0 | 0.00 | 0.00 | 0.00 | 88 | 1016.4 |
| 20260507043100 | 15 | 253 | 0.0 | 0.0 | 0.00 | 0.00 | 0.00 | 87 | 1016.3 |
| 20260507041601 | 15 | 253 | 0.0 | 1.6 | 0.00 | 0.00 | 0.00 | 87 | 1016.4 |
| 20260507040109 | 16 | 253 | 0.0 | 1.6 | 0.00 | 0.00 | 0.00 | 86 | 1016.2 |
| 20260507034605 | 16 | 253 | 0.0 | 1.6 | 0.00 | 0.00 | 0.00 | 85 | 1016.1 |
| 20260507033103 | 16 | 246 | 0.0 | 1.6 | 0.00 | 0.00 | 0.00 | 84 | 1015.9 |
| 20260507031558 | 16 | 269 | 0.0 | 1.6 | 0.00 | 0.00 | 0.00 | 83 | 1015.9 |
| 20260507030058 | 17 | 256 | 0.0 | 0.0 | 0.00 | 0.00 | 0.00 | 82 | 1015.7 |
| 20260507024557 | 17 | 256 | 0.0 | 3.2 | 0.00 | 0.00 | 0.00 | 82 | 1015.5 |
| 20260507023056 | 17 | 253 | 0.0 | 3.2 | 0.00 | 0.00 | 0.00 | 80 | 1015.4 |
| 20260507021605 | 18 | 253 | 1.6 | 8.0 | 0.00 | 0.00 | 0.00 | 77 | 1015.3 |
| 20260507020057 | 19 | 267 | 1.6 | 4.8 | 0.00 | 0.00 | 0.00 | 77 | 1015.3 |
| 20260507014558 | 19 | 267 | 0.0 | 4.8 | 0.00 | 0.00 | 0.00 | 75 | 1015.1 |
| 20260507013054 | 20 | 281 | 1.6 | 11.3 | 0.00 | 0.00 | 0.00 | 72 | 1015.0 |
| 20260507011558 | 20 | 270 | 3.2 | 11.3 | 0.00 | 0.00 | 0.00 | 68 | 1015.0 |
| 20260507010055 | 20 | 255 | 4.8 | 9.7 | 0.00 | 0.00 | 0.00 | 63 | 1014.8 |
| 20260507004553 | 20 | 277 | 6.4 | 17.7 | 0.00 | 0.00 | 0.00 | 61 | 1014.9 |
| 20260507003050 | 21 | 277 | 4.8 | 16.1 | 0.00 | 0.00 | 0.00 | 61 | 1014.8 |
| 20260507001549 | 21 | 277 | 6.4 | 12.9 | 0.00 | 0.00 | 0.00 | 61 | 1014.7 |
| 20260507000049 | 22 | 269 | 4.8 | 11.3 | 0.00 | 0.00 | 0.00 | 61 | 1014.6 |
| 20260506234604 | 21 | 283 | 3.2 | 9.7 | 0.00 | 0.00 | 0.00 | 64 | 1014.5 |
| 20260506233047 | 21 | 278 | 9.7 | 16.1 | 0.00 | 0.00 | 0.00 | 63 | 1014.5 |
| 20260506231546 | 21 | 236 | 6.4 | 14.5 | 0.00 | 0.00 | 0.00 | 67 | 1014.6 |
| 20260506230043 | 21 | 264 | 6.4 | 19.3 | 0.00 | 0.00 | 0.00 | 68 | 1014.7 |
| 20260506224546 | 21 | 285 | 8.0 | 20.9 | 0.00 | 0.00 | 0.00 | 67 | 1014.8 |
| 20260506223047 | 21 | 309 | 8.0 | 19.3 | 0.00 | 0.00 | 0.00 | 66 | 1014.9 |
| 20260506221539 | 20 | 271 | 6.4 | 17.7 | 0.00 | 0.00 | 0.00 | 67 | 1015.0 |
| 20260506220038 | 20 | 263 | 8.0 | 17.7 | 0.00 | 0.00 | 0.00 | 68 | 1015.2 |
| 20260506214539 | 21 | 269 | 12.9 | 20.9 | 0.00 | 0.00 | 0.00 | 66 | 1015.3 |
| 20260506213034 | 20 | 271 | 11.3 | 20.9 | 0.00 | 0.00 | 0.00 | 67 | 1015.6 |
| 20260506211535 | 21 | 284 | 11.3 | 19.3 | 0.00 | 0.00 | 0.00 | 67 | 1015.7 |
| 20260506210036 | 21 | 302 | 3.2 | 12.9 | 0.00 | 0.00 | 0.00 | 65 | 1015.8 |
| 20260506204546 | 22 | 278 | 3.2 | 9.7 | 0.00 | 0.00 | 0.00 | 65 | 1015.8 |